Retour au catalogue

STARLINK-35894

ActifCommunicationsVLEO
NORAD 66500·PAYLOAD·🇺🇸 United States

Lancé Nov 15, 2025 depuis Cape Canaveral Space Force Station

Loading…

Prochains Passages (prochaines 24 heures)

TLE

FraisSource: CelesTrak SupGP

Époque: Sep 15, 2026, 03:09 UTC

1 66500C 25263R   26258.13173611  .00031996  00000+0  11588-2 0  2581
2 66500  43.0037   4.2608 0001639 261.3739  39.5995 15.27566124    16

Suivez STARLINK-35894 en temps réel avec AllMySat

Download on the App Store